BREEZE-M DEB (TANK), 42751

Orbit data source: Space-Track

BREEZE-M DEB (TANK), 42751 is space debris in HEO originally from a launch on Thu, 08 Jun 2017 UTC launched from the Tyuratam Missile And Space Complex (TTMTR). Debris objects in space refer to the collection of defunct objects orbiting the Earth. Examples of debris include non-operational satellites, rocket bodies, and fragments generated from explosions, collisions, or faulty payload assembly.

Loading next visibility...
Identifier
42751, 2017-032C
Orbit
HEO
Last TLE update
2 days ago
Origin
Manufacturer
Khrunichev
Mission
Spacecraft
Bus & Motor
BRIZ TANK, Unknown motor
Mass
~1,000 kg wet, 1,000 kg dry
Launch date (UTC)
2017-06-08 (8 years ago)
Launch vehicle
Unknown
Launch site
Tyuratam Missile And Space Complex (TTMTR)
Object type
Payload
Rocket body
Debris
Shape & HBR
Torus, 4 m
Radar Cross Section
8.218 m², Large (>1 m²)

Expand to show TLE details & history

TLE from 2 days ago
0 BREEZE-M DEB (TANK)
1 42751U 17032C   25190.28117653  .00002162  00000-0  41230-3 0  9996
2 42751  49.7098 250.0507 4554963 320.4779  13.9317  6.35128936184252
Epoch: 2025-07-09T06:44Z
TLE epoch observation values (Epoch: 2025-07-09T06:44:53.652Z)
Latitude
0.00006°
Longitude
-138.62992°
Altitude
849.339 km
Speed
8.829 km/s
True Right ascension
16h 40m 13s
True Declination
0° 00' 00"
Sunlit
Object was in full shadow at epoch
Visualization orbit readout
Latitude
18.61334°
Longitude
22.78905°
Altitude
11,166.532 km
Speed
3.617 km/s
Apparent Right ascension
04h 05m 10s
Apparent Declination
4° 15' 16"
Sunlit
Object is in daylight
Visualization observer readout
Local Sidereal Time
18:26:39
Azimuth
44.929° NE
Elevation
-35.176°
Doppler factor
1
Orbital elements
Apogee altitude
11,549.705 km
Perigee altitude
328.7 km
Semi-major axis
12,317.34 km
Eccentricity
0.4555
Inclination
49.7098°
RAAN
250.0507°
Arg. of periapsis
320.4779°
True anomaly
Unknown
Mean anomaly
13.9317°
Eccentric anomaly
Unknown
Mean motion
1.5877 °/min
Orbital period
226.74 mins
BSTAR
0.0004123
Loading maneuver chart data...
Loading SW <> Apogee altitude chart data...
Loading historical data...
Loading historical data...
Loading historical data...
Loading historical data...
Loading historical data...
Loading historical data...
Loading historical data...
Other satellites on launch #32 in the year 2017 (2017-06-08 UTC)

BREEZE-M DEB (TANK) Visibility forecast

Observer location: undefined°, undefined°

Span
Click to sort rows by Start time (UTC) header in descending order
Start Az.
Max El. time (UTC)
Max El. Az.
Max El.
End time (UTC)
End Az.
94 mins2025-07-11 08:01:29.298Z252.395° W2025-07-11 08:16:29.298Z339.561° N44.29°2025-07-11 09:35:29.298Z76.989° E
137 mins2025-07-11 12:03:29.298Z297.332° NW2025-07-11 12:50:29.298Z33.276° NE44.948°2025-07-11 14:20:29.298Z138.928° SSE
118 mins2025-07-11 16:13:29.298Z306.993° NW2025-07-11 17:09:29.298Z263.597° W31.464°2025-07-11 18:11:29.298Z209.275° SW
|